Location: Chavenne
(46.6022°N, 3.2951°E)
Time: 12:16:34
(UTC+00:00)

Cosmos 1833 Rocket - Pass Details

Date: 09 April 2020
Orbit: 834 x 838 km, 71.0° (Epoch: 05 June)

Event Time Altitude Azimuth Distance (km) Brightness Sun altitude
Exits shadow 22:20:14 46° 286° (WNW) 1,122 3.5 -32.0°
Maximum altitude 22:20:46 47° 303° (WNW) 1,101 3.5 -32.0°
Drops below altitude 10° 22:26:12 10° 18° (NNE) 2,460 5.6 -32.4°
Sets 22:28:46 0° 24° (NNE) 3,397 6.4 -32.6°
